Regional Weather Roundup
Issued by NWS

Home | Current Version | Previous Version | Text Only | Print | Product List | Glossary Off
Versions: 1 2 3 4 5 6 7 8 9 10 11 12 13 14 15 16 17 18 19 20 21 22 23 24 25 26 27 28 29 30 31 32 33 34 35 36 37 38 39 40 41 42 43 44 45 46 47 48 49 50

250
ASUS43 KLSX 210107
RWRMO

WEATHER SUMMARY FOR MISSOURI
NATIONAL WEATHER SERVICE SPRINGFIELD MO
700 PM CST MON NOV 20 2017

NOTE: "FAIR" INDICATES FEW OR NO CLOUDS BELOW 12,000 FEET WITH NO
       SIGNIFICANT WEATHER AND/OR OBSTRUCTIONS TO VISIBILITY.
       CURRENT SKY AND/OR WEATHER CONDITIONS ARE NOT AVAILABLE FOR
       CHILLICOTHE AND FARMINGTON.

MOZ001>031-035>038-043-044-053-054-210200-
...NORTHERN AND WESTERN MISSOURI...

CITY           SKY/WX    TMP DP  RH WIND       PRES   REMARKS
KANSAS CTY INT CLOUDY    56  29  35 SW16G28   29.76R
KANSAS C DTWN  CLOUDY    59  28  30 SW16      29.77R
LEE`S SUMMIT   CLOUDY    54  31  41 SW16      29.80R
ST JOSEPH      CLOUDY    56  30  37 S20       29.69F
CHILLICOTHE      N/A     55  32  41 S12       29.75S
KIRKSVILLE     MOCLDY    54  30  40 SW16G24   29.75S

$$
MOZ066>068-077>081-088>096-101>105-210200-
...SOUTHWEST MISSOURI...

CITY           SKY/WX    TMP DP  RH WIND       PRES   REMARKS
SPRINGFIELD    CLOUDY    50  30  46 S9        29.90R
JOPLIN         PTCLDY    54  29  38 S14       29.89S
BRANSON        CLEAR     48  28  46 S10       29.94S

$$
MOZ032>034-039>042-045>050-055>058-069>072-210200-
...CENTRAL MISSOURI...

CITY           SKY/WX    TMP DP  RH WIND       PRES   REMARKS
COLUMBIA       CLOUDY    49  30  48 S9        29.84S
JEFFERSON CITY CLEAR     54  28  36 SE7       29.85R
ROLLA          CLEAR     50  27  40 S16       29.87R
SEDALIA        CLOUDY    54  31  41 S15       29.83S
WHITEMAN AFB   PTCLDY    55  29  37 SW23G30   29.76F
WARRENSBURG    CLOUDY    54  30  40 S15G22    29.80S
OSAGE BEACH    CLEAR     53  28  38 S9        29.88R

$$
MOZ051-052-059>065-210200-
...EAST CENTRAL MISSOURI...

CITY           SKY/WX    TMP DP  RH WIND       PRES   REMARKS
ST LOUIS INTL  CLEAR     51  28  41 S16G23    29.86F
SPIRIT OF STL  CLEAR     53  26  35 S8G18     29.85F
ST CHARLES     CLEAR     48  27  44 S10       29.86R

$$
MOZ072>076-082>087-097>100-106>115-210200-
...SOUTH CENTRAL AND SOUTHEAST MISSOURI...

CITY           SKY/WX    TMP DP  RH WIND       PRES   REMARKS
CAPE GIRARDEAU CLEAR     43  30  60 S9        30.01F
FARMINGTON     CLEAR     46  28  49 S16       29.94F
POPLAR BLUFF   CLEAR     44  31  60 S7        30.02F
WEST PLAINS    CLEAR     48  26  42 S9        29.95F

$$



USA.gov is the U.S. government's official web portal to all federal, state and local government web resources and services.